Find Chongqing

NORAD ID: 43914 Int'l Des: 2018-112 Owner: DFHYT Country: CN operational
LEOCIRCULAR

リアルタイム位置

3D地球を読み込み中...

Chongqingについて

説明を読み込み中...

次回通過

Passes for default location (London). Set your location on the main map for personalized predictions.

高度履歴

Loading altitude history...

軌道要素

1 43914U 18112F 26121.53545661 -.00000116 00000-0 23111-4 0 9992
2 43914 50.0086 48.6000 0006572 115.0059 245.1503 13.43818324360265
Epoch: May 1, 2026 • Age: 17 hours

現在のステータス

高度 1100.7 km
速度 7.30 km/s
衛星直下点 -21.12°S, 64.54°W
打ち上げ日 Dec 29, 2018
運用期間 7.3 years
タイプ other

技術仕様

分類 Payload
質量 500.00 kg
乾燥質量 500.00 kg
総質量 500.00 kg
長さ 1.50 m
直径 1.00 m
スパン 5.00 m
形状 Box + 2 pan
製造者 DFHS
バスタイプ Hongyan
フェーズステータス In Orbit
所有者/国 DFHYT/CN

Most Searched